Wetterdaten: Dienstag, 14.12.2010
Datum Zeit Temp. A. Feuchte A. Luftdruck Regen Wind Richtung Richtung Sonnenschein UV Solar Windben
14.12.2010 00:00 -2,9 C 88 % 1021,8 hPa 0,0 mm 0,0 km/h (0 Bft) SW 225 0 min 0 UV-I 0 W/m 1,6 km/h (1 Bft)
14.12.2010 00:10 -2,9 C 88 % 1021,7 hPa 0,0 mm 0,0 km/h (0 Bft) S-SW 202 0 min 0 UV-I 0 W/m 1,6 km/h (1 Bft)
14.12.2010 00:20 -2,9 C 88 % 1021,7 hPa 0,0 mm 0,0 km/h (0 Bft) S-SW 202 0 min 0 UV-I 0 W/m 1,6 km/h (1 Bft)
14.12.2010 00:30 -2,9 C 88 % 1021,8 hPa 0,0 mm 0,0 km/h (0 Bft) S-SW 202 0 min 0 UV-I 0 W/m 3,2 km/h (1 Bft)
14.12.2010 00:40 -2,9 C 88 % 1021,7 hPa 0,0 mm 0,0 km/h (0 Bft) S-SW 202 0 min 0 UV-I 0 W/m 1,6 km/h (1 Bft)
14.12.2010 00:50 -2,9 C 89 % 1021,9 hPa 0,0 mm 0,0 km/h (0 Bft) S-SW 202 0 min 0 UV-I 0 W/m 1,6 km/h (1 Bft)
14.12.2010 01:00 -2,9 C 89 % 1021,9 hPa 0,3 mm 0,0 km/h (0 Bft) S-SW 202 0 min 0 UV-I 0 W/m 1,6 km/h (1 Bft)
14.12.2010 01:10 -2,9 C 89 % 1021,9 hPa 0,0 mm 0,0 km/h (0 Bft) S-SW 202 0 min 0 UV-I 0 W/m 1,6 km/h (1 Bft)
14.12.2010 01:20 -3,0 C 89 % 1021,9 hPa 0,0 mm 0,0 km/h (0 Bft) S-SW 202 0 min 0 UV-I 0 W/m 1,6 km/h (1 Bft)
14.12.2010 01:30 -3,1 C 89 % 1022,1 hPa 0,0 mm 0,0 km/h (0 Bft) N 0 0 min 0 UV-I 0 W/m 0,0 km/h (0 Bft)
14.12.2010 01:40 -3,1 C 88 % 1022,1 hPa 0,0 mm 0,0 km/h (0 Bft) N 0 0 min 0 UV-I 0 W/m 0,0 km/h (0 Bft)
14.12.2010 01:50 -3,2 C 88 % 1022,1 hPa 0,0 mm 0,0 km/h (0 Bft) N 0 0 min 0 UV-I 0 W/m 0,0 km/h (0 Bft)
14.12.2010 02:00 -3,3 C 89 % 1022,4 hPa 0,0 mm 0,0 km/h (0 Bft) N 0 0 min 0 UV-I 0 W/m 0,0 km/h (0 Bft)
14.12.2010 02:10 -3,4 C 89 % 1022,5 hPa 0,0 mm 0,0 km/h (0 Bft) N 0 0 min 0 UV-I 0 W/m 0,0 km/h (0 Bft)
14.12.2010 02:20 -3,4 C 89 % 1022,5 hPa 0,0 mm 0,0 km/h (0 Bft) S-SW 202 0 min 0 UV-I 0 W/m 1,6 km/h (1 Bft)
14.12.2010 02:30 -3,4 C 89 % 1022,6 hPa 0,0 mm 0,0 km/h (0 Bft) S-SW 202 0 min 0 UV-I 0 W/m 1,6 km/h (1 Bft)
14.12.2010 02:40 -3,4 C 89 % 1022,7 hPa 0,0 mm 0,0 km/h (0 Bft) S-SW 202 0 min 0 UV-I 0 W/m 4,8 km/h (1 Bft)
14.12.2010 02:50 -3,3 C 89 % 1022,8 hPa 0,0 mm 1,6 km/h (1 Bft) S-SW 202 0 min 0 UV-I 0 W/m 4,8 km/h (1 Bft)
14.12.2010 03:00 -3,2 C 89 % 1022,8 hPa 0,0 mm 0,0 km/h (0 Bft) S-SW 202 0 min 0 UV-I 0 W/m 3,2 km/h (1 Bft)
14.12.2010 03:10 -3,2 C 89 % 1022,9 hPa 0,0 mm 0,0 km/h (0 Bft) SW 225 0 min 0 UV-I 0 W/m 4,8 km/h (1 Bft)
14.12.2010 03:20 -3,2 C 89 % 1023,1 hPa 0,0 mm 0,0 km/h (0 Bft) NW 315 0 min 0 UV-I 0 W/m 4,8 km/h (1 Bft)
14.12.2010 03:30 -3,2 C 89 % 1023,2 hPa 0,0 mm 0,0 km/h (0 Bft) NW 315 0 min 0 UV-I 0 W/m 4,8 km/h (1 Bft)
14.12.2010 03:40 -3,3 C 89 % 1023,2 hPa 0,0 mm 0,0 km/h (0 Bft) NW 315 0 min 0 UV-I 0 W/m 3,2 km/h (1 Bft)
14.12.2010 03:50 -3,4 C 89 % 1023,3 hPa 0,0 mm 0,0 km/h (0 Bft) NW 315 0 min 0 UV-I 0 W/m 1,6 km/h (1 Bft)
14.12.2010 04:00 -3,6 C 89 % 1023,4 hPa 0,0 mm 0,0 km/h (0 Bft) NW 315 0 min 0 UV-I 0 W/m 1,6 km/h (1 Bft)
14.12.2010 04:10 -3,8 C 89 % 1023,4 hPa 0,0 mm 0,0 km/h (0 Bft) N 0 0 min 0 UV-I 0 W/m 0,0 km/h (0 Bft)
14.12.2010 04:20 -4,1 C 89 % 1023,5 hPa 0,0 mm 0,0 km/h (0 Bft) NW 315 0 min 0 UV-I 0 W/m 3,2 km/h (1 Bft)
14.12.2010 04:30 -4,2 C 89 % 1023,8 hPa 0,0 mm 0,0 km/h (0 Bft) NW 315 0 min 0 UV-I 0 W/m 4,8 km/h (1 Bft)
14.12.2010 04:40 -4,3 C 89 % 1023,6 hPa 0,0 mm 0,0 km/h (0 Bft) NW 315 0 min 0 UV-I 0 W/m 3,2 km/h (1 Bft)
14.12.2010 04:50 -4,3 C 89 % 1023,8 hPa 0,0 mm 0,0 km/h (0 Bft) NW 315 0 min 0 UV-I 0 W/m 4,8 km/h (1 Bft)
14.12.2010 05:00 -4,3 C 89 % 1023,7 hPa 0,0 mm 0,0 km/h (0 Bft) NW 315 0 min 0 UV-I 0 W/m 4,8 km/h (1 Bft)
14.12.2010 05:10 -4,3 C 89 % 1023,9 hPa 0,0 mm 0,0 km/h (0 Bft) NW 315 0 min 0 UV-I 0 W/m 3,2 km/h (1 Bft)
14.12.2010 05:20 -4,3 C 89 % 1023,9 hPa 0,3 mm 0,0 km/h (0 Bft) NW 315 0 min 0 UV-I 0 W/m 3,2 km/h (1 Bft)
14.12.2010 05:30 -4,4 C 89 % 1024,1 hPa 0,0 mm 0,0 km/h (0 Bft) NW 315 0 min 0 UV-I 0 W/m 1,6 km/h (1 Bft)
14.12.2010 05:40 -4,4 C 89 % 1024,2 hPa 0,0 mm 0,0 km/h (0 Bft) NW 315 0 min 0 UV-I 0 W/m 1,6 km/h (1 Bft)
14.12.2010 05:50 -4,6 C 89 % 1024,4 hPa 0,0 mm 0,0 km/h (0 Bft) NW 315 0 min 0 UV-I 0 W/m 3,2 km/h (1 Bft)
14.12.2010 06:00 -4,7 C 89 % 1024,4 hPa 0,0 mm 0,0 km/h (0 Bft) NW 315 0 min 0 UV-I 0 W/m 1,6 km/h (1 Bft)
14.12.2010 06:10 -4,8 C 89 % 1024,4 hPa 0,0 mm 0,0 km/h (0 Bft) NW 315 0 min 0 UV-I 0 W/m 1,6 km/h (1 Bft)
14.12.2010 06:20 -5,0 C 89 % 1024,5 hPa 0,0 mm 0,0 km/h (0 Bft) NW 315 0 min 0 UV-I 0 W/m 3,2 km/h (1 Bft)
14.12.2010 06:30 -5,1 C 89 % 1024,7 hPa 0,0 mm 0,0 km/h (0 Bft) NW 315 0 min 0 UV-I 0 W/m 1,6 km/h (1 Bft)
14.12.2010 06:40 -5,1 C 89 % 1024,8 hPa 0,0 mm 0,0 km/h (0 Bft) NW 315 0 min 0 UV-I 0 W/m 4,8 km/h (1 Bft)
14.12.2010 06:50 -5,1 C 89 % 1024,9 hPa 0,0 mm 0,0 km/h (0 Bft) NW 315 0 min 0 UV-I 0 W/m 4,8 km/h (1 Bft)
14.12.2010 07:00 -4,9 C 89 % 1025,0 hPa 0,0 mm 0,0 km/h (0 Bft) NW 315 0 min 0 UV-I 0 W/m 4,8 km/h (1 Bft)
14.12.2010 07:10 -4,8 C 89 % 1025,0 hPa 0,0 mm 0,0 km/h (0 Bft) NW 315 0 min 0 UV-I 0 W/m 4,8 km/h (1 Bft)
14.12.2010 07:20 -4,7 C 89 % 1025,1 hPa 0,0 mm 0,0 km/h (0 Bft) NW 315 0 min 0 UV-I 0 W/m 3,2 km/h (1 Bft)
14.12.2010 07:30 -4,6 C 89 % 1025,2 hPa 0,0 mm 0,0 km/h (0 Bft) NW 315 0 min 0 UV-I 0 W/m 3,2 km/h (1 Bft)
14.12.2010 07:40 -4,5 C 90 % 1025,4 hPa 0,0 mm 0,0 km/h (0 Bft) NW 315 0 min 0 UV-I 0 W/m 3,2 km/h (1 Bft)
14.12.2010 07:50 -4,4 C 90 % 1025,5 hPa 0,0 mm 0,0 km/h (0 Bft) NW 315 0 min 0 UV-I 0 W/m 4,8 km/h (1 Bft)
14.12.2010 08:00 -4,4 C 90 % 1025,6 hPa 0,0 mm 0,8 km/h (0 Bft) NW 310 0 min 0 UV-I 0 W/m 3,2 km/h (1 Bft)
14.12.2010 08:10 -4,4 C 90 % 1025,7 hPa 0,0 mm 0,0 km/h (0 Bft) NW 315 0 min 0 UV-I 0 W/m 3,2 km/h (1 Bft)
14.12.2010 08:20 -4,3 C 90 % 1025,8 hPa 0,0 mm 0,0 km/h (0 Bft) NW 315 0 min 0 UV-I 0 W/m 4,8 km/h (1 Bft)
14.12.2010 08:30 -4,3 C 90 % 1025,9 hPa 0,0 mm 0,0 km/h (0 Bft) NW 315 0 min 0 UV-I 0 W/m 3,2 km/h (1 Bft)
14.12.2010 08:40 -4,3 C 90 % 1026,1 hPa 0,0 mm 0,0 km/h (0 Bft) NW 315 0 min 0 UV-I 0 W/m 3,2 km/h (1 Bft)
14.12.2010 08:50 -4,3 C 90 % 1026,3 hPa 0,0 mm 0,0 km/h (0 Bft) NW 315 0 min 0 UV-I 0 W/m 3,2 km/h (1 Bft)
14.12.2010 09:00 -4,2 C 90 % 1026,3 hPa 0,0 mm 0,0 km/h (0 Bft) NW 315 0 min 0 UV-I 0 W/m 3,2 km/h (1 Bft)
14.12.2010 09:10 -4,2 C 90 % 1026,4 hPa 0,0 mm 0,0 km/h (0 Bft) NW 315 0 min 0 UV-I 0 W/m 1,6 km/h (1 Bft)
14.12.2010 09:20 -4,2 C 90 % 1026,5 hPa 0,0 mm 0,0 km/h (0 Bft) NW 315 0 min 0 UV-I 0 W/m 3,2 km/h (1 Bft)
14.12.2010 09:30 -4,1 C 90 % 1026,5 hPa 0,0 mm 0,0 km/h (0 Bft) NW 315 0 min 0 UV-I 0 W/m 3,2 km/h (1 Bft)
14.12.2010 09:40 -4,1 C 90 % 1026,7 hPa 0,0 mm 0,0 km/h (0 Bft) NW 315 0 min 0 UV-I 7 W/m 3,2 km/h (1 Bft)
14.12.2010 09:50 -4,0 C 90 % 1026,8 hPa 0,0 mm 0,0 km/h (0 Bft) NW 315 0 min 0 UV-I 5 W/m 3,2 km/h (1 Bft)
14.12.2010 10:00 -3,9 C 90 % 1027,0 hPa 0,0 mm 0,0 km/h (0 Bft) NW 315 0 min 0 UV-I 12 W/m 3,2 km/h (1 Bft)
14.12.2010 10:10 -3,9 C 90 % 1027,1 hPa 0,0 mm 0,0 km/h (0 Bft) NW 315 0 min 0 UV-I 14 W/m 3,2 km/h (1 Bft)
14.12.2010 10:20 -3,8 C 90 % 1027,2 hPa 0,0 mm 0,0 km/h (0 Bft) NW 315 0 min 0 UV-I 14 W/m 1,6 km/h (1 Bft)
14.12.2010 10:30 -3,7 C 90 % 1027,2 hPa 0,0 mm 0,0 km/h (0 Bft) NW 315 0 min 0 UV-I 12 W/m 3,2 km/h (1 Bft)
14.12.2010 10:40 -3,6 C 90 % 1027,2 hPa 0,0 mm 0,0 km/h (0 Bft) NW 315 0 min 0 UV-I 23 W/m 3,2 km/h (1 Bft)
14.12.2010 10:50 -3,5 C 90 % 1027,3 hPa 0,0 mm 0,0 km/h (0 Bft) NW 315 0 min 0 UV-I 28 W/m 4,8 km/h (1 Bft)
14.12.2010 11:00 -3,4 C 90 % 1027,3 hPa 0,0 mm 1,6 km/h (1 Bft) W-NW 292 0 min 0 UV-I 25 W/m 6,4 km/h (2 Bft)
14.12.2010 11:10 -3,3 C 90 % 1027,4 hPa 0,0 mm 1,6 km/h (1 Bft) W-NW 292 0 min 0 UV-I 26 W/m 6,4 km/h (2 Bft)
14.12.2010 11:20 -3,3 C 90 % 1027,6 hPa 0,0 mm 0,0 km/h (0 Bft) W-NW 292 0 min 0 UV-I 23 W/m 4,8 km/h (1 Bft)
14.12.2010 11:30 -3,2 C 90 % 1027,6 hPa 0,0 mm 1,6 km/h (1 Bft) W-NW 292 0 min 0 UV-I 46 W/m 4,8 km/h (1 Bft)
14.12.2010 11:40 -3,1 C 90 % 1027,4 hPa 0,0 mm 1,6 km/h (1 Bft) W-NW 292 0 min 0 UV-I 26 W/m 4,8 km/h (1 Bft)
14.12.2010 11:50 -3,0 C 90 % 1027,3 hPa 0,0 mm 0,0 km/h (0 Bft) W-NW 292 0 min 0 UV-I 49 W/m 6,4 km/h (2 Bft)
14.12.2010 12:00 -2,8 C 90 % 1027,4 hPa 0,0 mm 0,0 km/h (0 Bft) W-NW 292 0 min 0 UV-I 40 W/m 3,2 km/h (1 Bft)
14.12.2010 12:10 -2,7 C 90 % 1027,4 hPa 0,0 mm 1,6 km/h (1 Bft) W-NW 292 0 min 0 UV-I 42 W/m 4,8 km/h (1 Bft)
14.12.2010 12:20 -2,6 C 90 % 1027,5 hPa 0,0 mm 0,0 km/h (0 Bft) W-NW 292 0 min 0 UV-I 53 W/m 3,2 km/h (1 Bft)
14.12.2010 12:30 -2,5 C 90 % 1027,6 hPa 0,0 mm 1,6 km/h (1 Bft) W-NW 292 0 min 0 UV-I 18 W/m 3,2 km/h (1 Bft)
14.12.2010 12:40 -2,5 C 90 % 1027,5 hPa 0,0 mm 1,6 km/h (1 Bft) W-NW 292 0 min 0 UV-I 11 W/m 4,8 km/h (1 Bft)
14.12.2010 12:50 -2,6 C 90 % 1027,5 hPa 0,0 mm 1,6 km/h (1 Bft) W-NW 292 0 min 0 UV-I 11 W/m 4,8 km/h (1 Bft)
14.12.2010 13:00 -2,6 C 90 % 1027,6 hPa 0,0 mm 1,6 km/h (1 Bft) W-NW 292 0 min 0 UV-I 7 W/m 6,4 km/h (2 Bft)
14.12.2010 13:10 -2,7 C 89 % 1027,7 hPa 0,0 mm 1,6 km/h (1 Bft) W-NW 292 0 min 0 UV-I 5 W/m 6,4 km/h (2 Bft)
14.12.2010 13:20 -2,7 C 89 % 1027,7 hPa 0,0 mm 1,6 km/h (1 Bft) W-NW 292 0 min 0 UV-I 9 W/m 4,8 km/h (1 Bft)
14.12.2010 13:30 -2,8 C 89 % 1027,9 hPa 0,0 mm 0,0 km/h (0 Bft) W-NW 292 0 min 0 UV-I 12 W/m 3,2 km/h (1 Bft)
14.12.2010 13:40 -2,7 C 90 % 1027,9 hPa 0,0 mm 0,0 km/h (0 Bft) W-NW 292 0 min 0 UV-I 14 W/m 3,2 km/h (1 Bft)
14.12.2010 13:50 -2,7 C 90 % 1028,0 hPa 0,0 mm 0,0 km/h (0 Bft) W-NW 292 0 min 0 UV-I 12 W/m 1,6 km/h (1 Bft)
14.12.2010 14:00 -2,6 C 90 % 1027,9 hPa 0,0 mm 0,0 km/h (0 Bft) W-NW 292 0 min 0 UV-I 12 W/m 1,6 km/h (1 Bft)
14.12.2010 14:10 -2,6 C 90 % 1027,9 hPa 0,3 mm 0,0 km/h (0 Bft) W-NW 292 0 min 0 UV-I 14 W/m 8,0 km/h (2 Bft)
14.12.2010 14:20 -2,4 C 90 % 1027,9 hPa 0,0 mm 3,2 km/h (1 Bft) N 360 0 min 0 UV-I 21 W/m 8,0 km/h (2 Bft)
14.12.2010 14:30 -2,3 C 90 % 1027,9 hPa 0,0 mm 1,6 km/h (1 Bft) N 360 0 min 0 UV-I 28 W/m 4,8 km/h (1 Bft)
14.12.2010 14:40 -2,2 C 90 % 1028,1 hPa 0,0 mm 0,0 km/h (0 Bft) N 360 0 min 0 UV-I 28 W/m 4,8 km/h (1 Bft)
14.12.2010 14:50 -2,1 C 90 % 1028,1 hPa 0,0 mm 1,6 km/h (1 Bft) N 360 0 min 0 UV-I 26 W/m 6,4 km/h (2 Bft)
14.12.2010 15:00 -2,0 C 90 % 1028,1 hPa 0,0 mm 0,0 km/h (0 Bft) N 360 0 min 0 UV-I 16 W/m 4,8 km/h (1 Bft)
14.12.2010 15:10 -2,0 C 90 % 1028,2 hPa 0,0 mm 0,0 km/h (0 Bft) N 360 0 min 0 UV-I 9 W/m 4,8 km/h (1 Bft)
14.12.2010 15:20 -2,0 C 89 % 1028,2 hPa 0,0 mm 0,0 km/h (0 Bft) N 360 0 min 0 UV-I 0 W/m 4,8 km/h (1 Bft)
14.12.2010 15:30 -2,1 C 89 % 1028,3 hPa 0,0 mm 1,6 km/h (1 Bft) N 360 0 min 0 UV-I 0 W/m 6,4 km/h (2 Bft)
14.12.2010 15:40 -2,1 C 89 % 1028,4 hPa 0,0 mm 1,6 km/h (1 Bft) N 360 0 min 0 UV-I 0 W/m 6,4 km/h (2 Bft)
14.12.2010 15:50 -2,2 C 89 % 1028,6 hPa 0,0 mm 1,6 km/h (1 Bft) N 360 0 min 0 UV-I 0 W/m 8,0 km/h (2 Bft)
14.12.2010 16:00 -2,3 C 89 % 1028,6 hPa 0,0 mm 0,7 km/h (0 Bft) N 9 0 min 0 UV-I 0 W/m 3,2 km/h (1 Bft)
14.12.2010 16:10 -2,3 C 88 % 1028,7 hPa 0,0 mm 0,0 km/h (0 Bft) N 360 0 min 0 UV-I 0 W/m 3,2 km/h (1 Bft)
14.12.2010 16:20 -2,3 C 88 % 1028,8 hPa 0,0 mm 1,6 km/h (1 Bft) N 360 0 min 0 UV-I 0 W/m 6,4 km/h (2 Bft)
14.12.2010 16:30 -2,3 C 88 % 1028,8 hPa 0,0 mm 0,0 km/h (0 Bft) N 360 0 min 0 UV-I 0 W/m 6,4 km/h (2 Bft)
14.12.2010 16:40 -2,4 C 88 % 1028,9 hPa 0,0 mm 1,6 km/h (1 Bft) N 360 0 min 0 UV-I 0 W/m 6,4 km/h (2 Bft)
14.12.2010 16:50 -2,4 C 88 % 1029,0 hPa 0,0 mm 1,6 km/h (1 Bft) N 360 0 min 0 UV-I 0 W/m 8,0 km/h (2 Bft)
14.12.2010 17:00 -2,4 C 88 % 1029,1 hPa 0,0 mm 0,0 km/h (0 Bft) N 360 0 min 0 UV-I 0 W/m 3,2 km/h (1 Bft)
14.12.2010 17:10 -2,4 C 88 % 1029,0 hPa 0,0 mm 1,6 km/h (1 Bft) N 360 0 min 0 UV-I 0 W/m 4,8 km/h (1 Bft)
14.12.2010 17:20 -2,4 C 88 % 1029,1 hPa 0,0 mm 1,6 km/h (1 Bft) N-NW 337 0 min 0 UV-I 0 W/m 11,3 km/h (2 Bft)
14.12.2010 17:30 -2,4 C 88 % 1029,1 hPa 0,0 mm 1,6 km/h (1 Bft) NW 315 0 min 0 UV-I 0 W/m 11,3 km/h (2 Bft)
14.12.2010 17:40 -2,4 C 88 % 1029,1 hPa 0,0 mm 1,6 km/h (1 Bft) NW 315 0 min 0 UV-I 0 W/m 6,4 km/h (2 Bft)
14.12.2010 17:50 -2,5 C 88 % 1029,2 hPa 0,0 mm 1,6 km/h (1 Bft) NW 315 0 min 0 UV-I 0 W/m 9,7 km/h (2 Bft)
14.12.2010 18:00 -2,5 C 88 % 1029,2 hPa 0,0 mm 1,6 km/h (1 Bft) N-NO 22 0 min 0 UV-I 0 W/m 8,0 km/h (2 Bft)
14.12.2010 18:10 -2,5 C 87 % 1029,2 hPa 0,0 mm 1,6 km/h (1 Bft) N-NW 337 0 min 0 UV-I 0 W/m 9,7 km/h (2 Bft)
14.12.2010 18:20 -2,6 C 87 % 1029,2 hPa 0,0 mm 1,6 km/h (1 Bft) NW 315 0 min 0 UV-I 0 W/m 9,7 km/h (2 Bft)
14.12.2010 18:30 -2,6 C 87 % 1029,2 hPa 0,0 mm 1,6 km/h (1 Bft) NW 315 0 min 0 UV-I 0 W/m 9,7 km/h (2 Bft)
14.12.2010 18:40 -2,6 C 87 % 1029,3 hPa 0,0 mm 1,6 km/h (1 Bft) NW 315 0 min 0 UV-I 0 W/m 8,0 km/h (2 Bft)
14.12.2010 18:50 -2,6 C 87 % 1029,4 hPa 0,0 mm 1,6 km/h (1 Bft) NW 315 0 min 0 UV-I 0 W/m 11,3 km/h (2 Bft)
14.12.2010 19:00 -2,7 C 87 % 1029,3 hPa 0,0 mm 1,6 km/h (1 Bft) NW 315 0 min 0 UV-I 0 W/m 8,0 km/h (2 Bft)
14.12.2010 19:10 -2,7 C 87 % 1029,4 hPa 0,0 mm 1,6 km/h (1 Bft) W-NW 292 0 min 0 UV-I 0 W/m 11,3 km/h (2 Bft)
14.12.2010 19:20 -2,7 C 87 % 1029,3 hPa 0,0 mm 1,6 km/h (1 Bft) N 360 0 min 0 UV-I 0 W/m 8,0 km/h (2 Bft)
14.12.2010 19:30 -2,8 C 87 % 1029,3 hPa 0,0 mm 1,6 km/h (1 Bft) N-NW 337 0 min 0 UV-I 0 W/m 9,7 km/h (2 Bft)
14.12.2010 19:40 -2,8 C 87 % 1029,2 hPa 0,0 mm 1,6 km/h (1 Bft) N-NW 337 0 min 0 UV-I 0 W/m 8,0 km/h (2 Bft)
14.12.2010 19:50 -2,9 C 86 % 1029,2 hPa 0,0 mm 3,2 km/h (1 Bft) W-NW 292 0 min 0 UV-I 0 W/m 14,5 km/h (3 Bft)
14.12.2010 20:00 -2,9 C 86 % 1029,4 hPa 0,0 mm 4,8 km/h (1 Bft) W-NW 292 0 min 0 UV-I 0 W/m 14,5 km/h (3 Bft)
14.12.2010 20:10 -2,9 C 86 % 1029,4 hPa 0,0 mm 3,2 km/h (1 Bft) W-NW 292 0 min 0 UV-I 0 W/m 9,7 km/h (2 Bft)
14.12.2010 20:20 -2,9 C 86 % 1029,4 hPa 0,0 mm 1,6 km/h (1 Bft) W-NW 292 0 min 0 UV-I 0 W/m 6,4 km/h (2 Bft)
14.12.2010 20:30 -2,9 C 86 % 1029,3 hPa 0,0 mm 3,2 km/h (1 Bft) W-NW 292 0 min 0 UV-I 0 W/m 9,7 km/h (2 Bft)
14.12.2010 20:40 -2,9 C 85 % 1029,4 hPa 0,0 mm 3,2 km/h (1 Bft) W-NW 292 0 min 0 UV-I 0 W/m 12,9 km/h (3 Bft)
14.12.2010 20:50 -2,9 C 85 % 1029,3 hPa 0,0 mm 3,2 km/h (1 Bft) W-NW 292 0 min 0 UV-I 0 W/m 11,3 km/h (2 Bft)
14.12.2010 21:00 -2,9 C 85 % 1029,4 hPa 0,0 mm 3,2 km/h (1 Bft) W-NW 292 0 min 0 UV-I 0 W/m 14,5 km/h (3 Bft)
14.12.2010 21:10 -2,9 C 92 % 1029,4 hPa 0,0 mm 3,2 km/h (1 Bft) W-NW 292 0 min 0 UV-I 0 W/m 9,7 km/h (2 Bft)
14.12.2010 21:20 -2,9 C 92 % 1029,5 hPa 0,0 mm 3,2 km/h (1 Bft) W-NW 292 0 min 0 UV-I 0 W/m 9,7 km/h (2 Bft)
14.12.2010 21:30 -2,9 C 92 % 1029,5 hPa 0,0 mm 3,2 km/h (1 Bft) W-NW 292 0 min 0 UV-I 0 W/m 14,5 km/h (3 Bft)
14.12.2010 21:40 -2,9 C 85 % 1029,5 hPa 0,0 mm 1,6 km/h (1 Bft) W-NW 292 0 min 0 UV-I 0 W/m 8,0 km/h (2 Bft)
14.12.2010 21:50 -2,9 C 92 % 1029,5 hPa 0,0 mm 1,6 km/h (1 Bft) W-NW 292 0 min 0 UV-I 0 W/m 6,4 km/h (2 Bft)
14.12.2010 22:00 -2,9 C 92 % 1029,4 hPa 0,0 mm 1,6 km/h (1 Bft) W 270 0 min 0 UV-I 0 W/m 8,0 km/h (2 Bft)
14.12.2010 22:10 -2,9 C 85 % 1029,3 hPa 0,0 mm 1,6 km/h (1 Bft) W-NW 292 0 min 0 UV-I 0 W/m 9,7 km/h (2 Bft)
14.12.2010 22:20 -2,9 C 85 % 1029,3 hPa 0,0 mm 3,2 km/h (1 Bft) W 270 0 min 0 UV-I 0 W/m 9,7 km/h (2 Bft)
14.12.2010 22:30 -2,9 C 85 % 1029,2 hPa 0,0 mm 3,2 km/h (1 Bft) W 270 0 min 0 UV-I 0 W/m 9,7 km/h (2 Bft)
14.12.2010 22:40 -2,9 C 85 % 1029,1 hPa 0,0 mm 1,6 km/h (1 Bft) W 270 0 min 0 UV-I 0 W/m 6,4 km/h (2 Bft)
14.12.2010 22:50 -2,9 C 85 % 1029,0 hPa 0,0 mm 1,6 km/h (1 Bft) W-NW 292 0 min 0 UV-I 0 W/m 8,0 km/h (2 Bft)
14.12.2010 23:00 -3,0 C 85 % 1029,0 hPa 0,0 mm 1,6 km/h (1 Bft) W-NW 292 0 min 0 UV-I 0 W/m 8,0 km/h (2 Bft)
14.12.2010 23:10 -3,0 C 85 % 1029,1 hPa 0,0 mm 3,2 km/h (1 Bft) W-NW 292 0 min 0 UV-I 0 W/m 9,7 km/h (2 Bft)
14.12.2010 23:20 -3,0 C 85 % 1029,1 hPa 0,3 mm 3,2 km/h (1 Bft) W-NW 292 0 min 0 UV-I 0 W/m 9,7 km/h (2 Bft)
14.12.2010 23:30 -3,1 C 85 % 1029,1 hPa 0,0 mm 1,6 km/h (1 Bft) W-NW 292 0 min 0 UV-I 0 W/m 9,7 km/h (2 Bft)
14.12.2010 23:40 -3,2 C 85 % 1029,1 hPa 0,0 mm 1,6 km/h (1 Bft) NW 315 0 min 0 UV-I 0 W/m 4,8 km/h (1 Bft)
14.12.2010 23:50 -3,3 C 84 % 1029,1 hPa 0,0 mm 1,6 km/h (1 Bft) W-NW 292 0 min 0 UV-I 0 W/m 6,4 km/h (2 Bft)
_ Min-Zeit 06:20 23:50 00:10 - 00:00 - - - - - 01:30
Minimum _ -5,1 C 84 % 1021,7 hPa - 0,0 km/h (0 Bft) - - - - - 0,0 km/h (0 Bft)
_ Max-Zeit 14:50 21:10 21:20 01:00 20:00 - - 00:00 00:00 12:20 19:50
Maximum _ -2,0 C 92 % 1029,5 hPa 0,3 mm 4,8 km/h
W-NW (1 Bft)
- - 0 min 0 UV-I 53 W/m 14,5 km/h
W-NW (3 Bft)
Durchschnitt _ -3,2 C 89 % 1026,6 hPa #1,0 mm 0,9 km/h (0 Bft) W-NW - #0 min. 0 UV-I 21 W/m 5,3 km/h (1 Bft)